Back to catalog

STARLINK-37457

AliveCommunicationsVLEO
NORAD 100294·PAYLOAD·🇺🇸 United States

Launched Aug 11, 2026 from Cape Canaveral Space Force Station

Loading…

Next Passes (next 24 hours)

TLE

AgingSource: Space-Track

Epoch: Sep 12, 2026, 20:05 UTC

1 A0294U 26183Y   26255.83721638 -.00310081  00000-0 -28436-2 0  9993
2 A0294  53.1589 294.8936 0001986   9.5963 350.5092 15.68011430  5104

Track STARLINK-37457 in real time with AllMySat

Download on the App Store